Total_Precipitation_Accumulation
0.06 0.04 0.03 0.02 0.01 0.00 0.00 0.00 0.00 0.00 0.00 0.01 0.03 0.03 0.03 0.02 0.06 0.13 0.25 0.33 0.44 0.43 0.36 0.23 0.13 0.12 0.15 0.14 0.16 0.20 0.26 0.31 0.35 0.34 0.26 0.18 0.13 0.07 0.03 0.04 0.05 0.07 0.07
0.08 0.06 0.05 0.04 0.02 0.01 0.00 0.00 0.00 0.00 0.00 0.00 0.01 0.01 0.02 0.02 0.02 0.06 0.18 0.39 0.53 0.48 0.50 0.47 0.31 0.23 0.19 0.15 0.17 0.19 0.24 0.25 0.28 0.30 0.25 0.18 0.13 0.08 0.03 0.04 0.05 0.07 0.07
0.10 0.10 0.09 0.06 0.04 0.02 0.00 0.00 0.00 0.00 0.00 0.00 0.00 0.00 0.00 0.01 0.01 0.01 0.02 0.09 0.21 0.30 0.38 0.40 0.39 0.32 0.25 0.19 0.18 0.15 0.16 0.19 0.22 0.26 0.26 0.21 0.15 0.10 0.07 0.07 0.07 0.07 0.06
0.18 0.16 0.14 0.13 0.09 0.04 0.02 0.02 0.02 0.01 0.00 0.01 0.01 0.01 0.00 0.00 0.01 0.00 0.00 0.01 0.04 0.10 0.21 0.21 0.24 0.26 0.28 0.28 0.26 0.17 0.11 0.11 0.13 0.18 0.24 0.24 0.18 0.15 0.14 0.14 0.11 0.09 0.05
0.39 0.39 0.32 0.27 0.17 0.13 0.09 0.06 0.04 0.02 0.02 0.03 0.03 0.02 0.01 0.01 0.01 0.00 0.01 0.01 0.02 0.04 0.08 0.07 0.08 0.09 0.12 0.14 0.18 0.18 0.11 0.09 0.09 0.11 0.15 0.18 0.17 0.16 0.18 0.17 0.12 0.09 0.07
0.81 0.81 0.76 0.61 0.45 0.36 0.28 0.18 0.15 0.13 0.08 0.06 0.02 0.02 0.02 0.01 0.01 0.00 0.01 0.01 0.01 0.01 0.01 0.01 0.03 0.03 0.02 0.04 0.04 0.06 0.07 0.08 0.07 0.07 0.10 0.12 0.12 0.12 0.16 0.19 0.16 0.15 0.13
1.23 1.28 1.15 1.04 0.89 0.67 0.57 0.49 0.43 0.45 0.28 0.10 0.11 0.12 0.05 0.02 0.01 0.01 0.01 0.01 0.01 0.01 0.00 0.00 0.01 0.01 0.01 0.01 0.01 0.03 0.06 0.10 0.10 0.08 0.08 0.09 0.09 0.09 0.11 0.16 0.17 0.19 0.20
1.48 1.47 1.52 1.47 1.33 1.16 1.01 0.82 0.75 0.82 0.61 0.30 0.31 0.43 0.28 0.14 0.06 0.03 0.02 0.01 0.02 0.02 0.02 0.01 0.00 0.00 0.00 0.01 0.00 0.02 0.05 0.09 0.12 0.08 0.06 0.06 0.05 0.05 0.06 0.10 0.14 0.16 0.17
1.74 1.73 1.77 1.74 1.60 1.36 1.24 1.20 1.13 1.30 1.06 0.67 0.47 0.53 0.48 0.37 0.21 0.06 0.02 0.03 0.02 0.02 0.01 0.01 0.01 0.00 0.00 0.01 0.01 0.01 0.01 0.03 0.07 0.08 0.07 0.05 0.05 0.04 0.04 0.05 0.08 0.11 0.12
1.70 1.77 1.75 1.70 1.61 1.46 1.44 1.40 1.28 1.44 1.45 1.09 0.80 0.59 0.43 0.38 0.35 0.24 0.09 0.04 0.05 0.04 0.02 0.01 0.01 0.01 0.00 0.00 0.01 0.01 0.01 0.01 0.03 0.06 0.08 0.08 0.06 0.06 0.06 0.05 0.06 0.07 0.09
1.54 1.54 1.50 1.52 1.52 1.50 1.50 1.55 1.49 1.60 1.55 1.42 1.12 0.96 0.83 0.64 0.43 0.39 0.34 0.16 0.07 0.05 0.03 0.02 0.03 0.02 0.01 0.01 0.01 0.01 0.01 0.01 0.02 0.04 0.06 0.07 0.06 0.07 0.08 0.08 0.07 0.07 0.07
1.47 1.37 1.35 1.36 1.44 1.52 1.51 1.51 1.51 1.61 1.61 1.57 1.35 1.11 1.02 0.91 0.78 0.70 0.53 0.37 0.21 0.08 0.05 0.04 0.05 0.04 0.03 0.02 0.02 0.02 0.01 0.01 0.02 0.02 0.04 0.04 0.04 0.03 0.06 0.08 0.08 0.09 0.09
1.15 1.17 1.23 1.28 1.36 1.42 1.43 1.44 1.46 1.45 1.47 1.59 1.49 1.30 1.11 0.95 0.90 0.80 0.70 0.53 0.41 0.20 0.09 0.07 0.07 0.07 0.05 0.03 0.03 0.03 0.02 0.01 0.01 0.02 0.02 0.02 0.03 0.02 0.03 0.04 0.05 0.06 0.08
0.97 0.93 0.94 1.01 1.16 1.33 1.37 1.33 1.30 1.26 1.24 1.34 1.28 1.21 1.17 0.99 0.90 0.81 0.78 0.80 0.68 0.53 0.29 0.12 0.08 0.07 0.05 0.04 0.03 0.03 0.02 0.02 0.02 0.02 0.02 0.02 0.02 0.02 0.02 0.03 0.03 0.03 0.03
0.73 0.68 0.68 0.73 0.81 0.99 1.16 1.23 1.12 1.04 0.97 1.03 1.06 1.05 1.11 1.09 0.97 0.87 0.88 0.86 0.81 0.68 0.55 0.36 0.21 0.13 0.12 0.08 0.07 0.05 0.03 0.03 0.04 0.03 0.03 0.02 0.02 0.02 0.02 0.02 0.02 0.02 0.02
0.52 0.51 0.47 0.50 0.59 0.70 0.86 1.01 1.04 1.01 0.92 0.88 0.96 1.05 1.10 1.13 1.13 0.93 0.85 0.83 0.74 0.67 0.58 0.41 0.29 0.19 0.21 0.19 0.16 0.09 0.06 0.06 0.05 0.06 0.05 0.04 0.03 0.03 0.02 0.02 0.02 0.01 0.01
0.38 0.39 0.45 0.47 0.54 0.63 0.78 0.97 1.05 1.02 0.93 0.91 0.91 0.96 1.05 1.11 1.27 1.18 1.03 0.89 0.79 0.71 0.62 0.51 0.36 0.24 0.24 0.24 0.25 0.17 0.10 0.07 0.06 0.07 0.07 0.06 0.05 0.04 0.03 0.02 0.02 0.01 0.01
0.30 0.36 0.40 0.44 0.48 0.49 0.59 0.75 0.89 0.95 0.92 0.84 0.79 0.82 0.95 1.06 1.24 1.31 1.25 1.09 0.98 0.87 0.79 0.70 0.54 0.39 0.32 0.29 0.30 0.29 0.21 0.14 0.13 0.14 0.11 0.06 0.05 0.05 0.04 0.04 0.03 0.02 0.02
0.38 0.45 0.50 0.53 0.53 0.53 0.52 0.55 0.61 0.69 0.73 0.70 0.66 0.64 0.66 0.76 0.97 1.15 1.20 1.18 1.15 1.06 0.97 0.86 0.68 0.54 0.43 0.32 0.29 0.30 0.26 0.23 0.20 0.21 0.23 0.18 0.12 0.10 0.08 0.06 0.05 0.04 0.03
0.41 0.43 0.44 0.50 0.59 0.58 0.55 0.54 0.52 0.49 0.46 0.47 0.51 0.54 0.55 0.57 0.69 0.79 0.89 1.03 1.23 1.22 1.13 1.04 0.83 0.61 0.49 0.38 0.32 0.31 0.31 0.29 0.29 0.27 0.28 0.27 0.24 0.16 0.12 0.10 0.08 0.07 0.06
0.38 0.40 0.42 0.44 0.50 0.56 0.61 0.62 0.48 0.39 0.35 0.31 0.30 0.31 0.36 0.44 0.51 0.54 0.60 0.80 1.06 1.18 1.14 1.07 0.97 0.76 0.53 0.43 0.31 0.27 0.32 0.37 0.35 0.33 0.35 0.32 0.31 0.27 0.24 0.19 0.15 0.12 0.10
0.36 0.40 0.39 0.40 0.48 0.50 0.59 0.56 0.39 0.33 0.32 0.32 0.30 0.24 0.25 0.28 0.30 0.33 0.37 0.45 0.63 0.81 0.98 1.08 1.05 0.89 0.70 0.55 0.47 0.40 0.37 0.38 0.39 0.36 0.41 0.48 0.48 0.47 0.48 0.43 0.40 0.38 0.29
0.33 0.36 0.36 0.37 0.40 0.50 0.47 0.32 0.30 0.28 0.31 0.32 0.30 0.30 0.30 0.24 0.25 0.24 0.30 0.32 0.32 0.38 0.53 0.75 0.89 0.93 0.96 0.76 0.61 0.51 0.44 0.44 0.45 0.42 0.45 0.52 0.56 0.59 0.62 0.60 0.58 0.55 0.49
0.41 0.40 0.42 0.42 0.40 0.44 0.38 0.27 0.27 0.27 0.32 0.34 0.33 0.33 0.39 0.35 0.32 0.35 0.31 0.32 0.31 0.29 0.39 0.38 0.50 0.76 0.84 0.81 0.70 0.66 0.69 0.60 0.50 0.39 0.36 0.41 0.47 0.53 0.58 0.62 0.62 0.54 0.48
0.41 0.43 0.46 0.46 0.41 0.37 0.34 0.25 0.24 0.29 0.34 0.38 0.35 0.32 0.35 0.37 0.45 0.47 0.40 0.48 0.49 0.42 0.50 0.52 0.52 0.54 0.55 0.53 0.56 0.56 0.55 0.54 0.51 0.44 0.38 0.34 0.35 0.37 0.40 0.44 0.43 0.44 0.43
0.24 0.31 0.33 0.36 0.38 0.36 0.41 0.28 0.26 0.28 0.32 0.37 0.37 0.37 0.47 0.44 0.47 0.44 0.36 0.52 0.55 0.48 0.44 0.47 0.45 0.39 0.34 0.34 0.36 0.38 0.49 0.51 0.46 0.39 0.31 0.26 0.24 0.23 0.24 0.22 0.20 0.23 0.23